Vagabond Aaf / Yakim, WA

11:31 PM PDT on March 27, 2017 (GMT -0700)
Vagabond Aaf / Yakim

Weather History for K1YT - October, 2013

Change the Weather History Date:

Friday, October 25, 2013

  Actual Average (KYKM) Record (KYKM)
Temperature  
Mean Temperature 52 °F -  
Max Temperature 66 °F 61 °F 71 °F (1984)
Min Temperature 37 °F 33 °F 19 °F (2002)
Degree Days  
Heating Degree Days 14    
Growing Degree Days 2 (Base 50)    
Moisture  
Dew Point 40 °F    
Average Humidity 73    
Maximum Humidity 93    
Minimum Humidity 42    
Precipitation  
Precipitation 0.00 in - - ()
Sea Level Pressure  
Sea Level Pressure 30.21 in    
Wind  
Wind Speed 3 mph ()    
Max Wind Speed 7 mph    
Max Gust Speed -    
Visibility 11.5 miles    
Events      
Averages and records for this station are not official NWS values.
T = Trace of Precipitation, MM = Missing Value Source: Averaged Metar Reports

Daily Weather History Graph

Daily Weather History Graph

Search for Another Location

Airport or City:

Trip Planner

Search our weather history database for the weather conditions in past years. The results will help you decide how hot, cold, wet, or windy it might be!

Date:

Astronomy

Oct. 25, 2013 Rise Set
Actual Time 7:34 AM PDT 5:56 PM PDT
Civil Twilight 7:02 AM PDT 6:27 PM PDT
Nautical Twilight 6:27 AM PDT 7:03 PM PDT
Astronomical Twilight 5:52 AM PDT 7:38 PM PDT
Moon 11:16 PM PDT (10/25) 1:23 PM PDT (10/25)
Length of Visible Light 11h 24m
Length of Day
10h 22m
Waning Gibbous, 61% of the Moon is Illuminated
Oct 25
Waning Gibbous
Oct 26
Last Quarter
Nov 3
New
Nov 9
First Quarter
Nov 17
Full

Hourly Weather History & Observations

Time (PDT) Temp. Windchill Dew Point Humidity Pressure Visibility Wind Dir Wind Speed Gust Speed Precip Events Conditions
12:56 AM 44.4 °F 42.9 °F 38.8 °F 81% 30.13 in 12.0 mi SW 3.5 mph - N/A   Clear
1:56 AM 41.9 °F - 38.5 °F 88% 30.15 in 12.0 mi Variable 1.2 mph - N/A   Clear
2:56 AM 43.3 °F - 39.0 °F 85% 30.16 in 12.0 mi NNW 2.3 mph - N/A   Clear
3:56 AM 39.4 °F 36.1 °F 36.0 °F 88% 30.17 in 12.0 mi ESE 4.6 mph - N/A   Clear
4:56 AM 41.9 °F - 37.8 °F 85% 30.18 in 12.0 mi West 2.3 mph - N/A   Clear
5:56 AM 39.0 °F - 37.2 °F 93% 30.19 in 12.0 mi Variable 1.2 mph - N/A   Clear
6:56 AM 38.5 °F 35.0 °F 35.8 °F 90% 30.20 in 12.0 mi WSW 4.6 mph - N/A   Clear
7:56 AM 37.6 °F - 35.1 °F 91% 30.22 in 12.0 mi WSW 1.2 mph - N/A   Clear
8:56 AM 42.3 °F - 38.8 °F 88% 30.24 in 12.0 mi East 1.2 mph - N/A   Clear
9:56 AM 46.8 °F - 40.1 °F 78% 30.24 in 12.0 mi Variable 1.2 mph - N/A   Clear
10:56 AM 52.3 °F - 41.5 °F 67% 30.24 in 12.0 mi NNE 3.5 mph - N/A   Clear
11:56 AM 57.0 °F - 42.3 °F 58% 30.23 in 12.0 mi West 3.5 mph - N/A   Clear
12:56 PM 61.0 °F - 43.5 °F 53% 30.23 in 12.0 mi WNW 6.9 mph - N/A   Clear
1:56 PM 64.4 °F - 43.5 °F 47% 30.21 in 12.0 mi Variable 6.9 mph - N/A   Clear
2:56 PM 64.8 °F - 43.0 °F 45% 30.21 in 12.0 mi SW 4.6 mph - N/A   Clear
3:56 PM 66.6 °F - 42.8 °F 42% 30.21 in 12.0 mi SSW 4.6 mph - N/A   Clear
4:56 PM 64.2 °F - 43.7 °F 47% 30.21 in 12.0 mi SSW 5.8 mph - N/A   Clear
5:56 PM 59.2 °F - 43.9 °F 57% 30.21 in 12.0 mi South 5.8 mph - N/A   Clear
6:56 PM 56.1 °F - 43.2 °F 62% 30.22 in 12.0 mi ESE 3.5 mph - N/A   Partly Cloudy
7:56 PM 52.7 °F - 43.0 °F 70% 30.23 in 10.0 mi NE 1.2 mph - N/A   Clear
8:56 PM 45.5 °F 43.2 °F 41.2 °F 85% 30.24 in 10.0 mi SSE 4.6 mph - N/A   Clear
9:56 PM 44.6 °F 43.1 °F 40.1 °F 84% 30.26 in 6.0 mi East 3.5 mph - N/A   Clear
10:56 PM 44.8 °F 43.3 °F 40.3 °F 84% 30.26 in 12.0 mi SW 3.5 mph - N/A   Clear
11:56 PM 44.6 °F - 40.1 °F 84% 30.27 in 10.0 mi South 1.2 mph - N/A   Clear